CAPE
717 732 605 478 564 860 787 1154 1112 1259 1462 1462 1243 1264 1339 1734 2155 2471 2579 2263 2380 2174 2467 2098 2083 2202 2240 2156 1965 2499 1691 1633 1400 1115 1334 1843 2133 2320 2142 1333 1626 1901 1653
851 836 706 565 406 354 605 972 1276 1353 1585 1869 1881 1782 2029 1895 1953 2276 2359 1845 2258 2284 2325 2146 1884 1579 2110 2311 2486 2584 2844 2229 1639 1717 1706 1629 2151 2252 2444 1788 1694 1171 1539
947 818 685 600 591 431 414 837 1267 1410 1551 1508 1671 2069 2334 2205 1964 1733 1880 1856 2039 2176 2278 2225 2075 2194 2254 1939 2219 1977 1852 1755 1766 1719 1699 1712 1627 1884 2117 2167 2144 1953 1637
931 882 848 822 713 636 493 711 1141 1495 1614 1763 1935 2070 2184 2157 2078 1685 1497 1370 1404 1825 2270 2302 2216 2254 2342 2399 1967 2243 2451 2293 1976 1959 1653 1550 1573 1609 1751 1640 1628 1881 1566
1113 1218 1201 1173 981 898 976 837 1061 1342 1418 1591 1634 1802 1766 1481 1379 2033 1821 1591 1937 1956 2096 2340 2138 2053 1668 1680 1981 2240 2420 2377 1528 1663 1633 1517 1462 1624 1776 1489 1591 1522 1577
1272 1186 1182 1276 1140 1106 1031 1062 1257 1230 1476 1668 1582 1517 1570 1078 449 740 1376 1925 2100 2118 2153 2158 2175 1387 1048 549 440 498 1495 2405 2156 1591 1352 1479 1748 1711 1381 1411 1356 1389 1093
1574 1522 1537 1114 1207 1252 1132 1061 1171 1457 1396 1561 1507 1635 1588 1695 834 510 179 1685 2343 2000 2064 2054 1915 1429 1416 2079 1071 156 73 266 740 2562 2032 1866 1811 2094 1940 1869 1669 1566 1455
1827 1713 1568 1431 1323 1462 1319 1336 1470 1400 1536 1568 1586 1972 1943 2080 1256 517 121 1477 1782 1570 1946 2190 2244 1962 1900 1884 2074 1980 2018 2099 1397 1245 2456 2083 2103 1907 1850 1687 1837 1745 1537
1676 1802 1785 1685 1637 1606 1640 1782 1791 1751 1746 1878 1818 1926 2208 2239 693 59 9 1343 1716 2078 2028 2148 2016 1951 1406 583 1212 1518 1765 2177 1077 402 426 34 31 13 170 1184 893 598 635
1463 1633 1792 1786 1858 1773 2001 1897 2093 1858 1849 1646 1773 2079 1710 1768 455 2 0 1004 1461 1526 1907 2042 654 869 867 10 745 1416 1691 1715 1915 1559 884 181 46 21 1 300 456 700 490
1644 1944 1862 1774 1819 1906 2161 2085 1792 1991 2086 2092 2012 2271 2215 1361 1172 0 1 1098 1173 1214 1265 1600 1578 7 0 1 1 733 1182 1266 1001 1341 1352 908 351 48 5 1 2 4 9
431 868 2204 2228 1999 1845 2074 2074 2252 2137 2058 2140 2026 2113 1950 1686 329 1 0 47 744 1602 1410 1123 393 0 0 0 0 0 0 15 969 848 643 297 42 6 5 2 4 6 7
376 536 799 1125 2294 2245 2389 2442 2498 2445 2114 2053 1968 2005 1721 1182 596 1 1 1 2 589 364 121 3 0 0 0 0 0 1 238 603 609 422 7 4 1 1 1 3 6 6
362 524 641 507 452 1530 2378 2244 2415 1859 2081 2271 2073 1826 1860 669 493 4 2 1 1 1 0 0 0 0 0 0 0 0 2 2 36 32 2 1 0 0 0 0 0 1 4
247 433 468 471 441 415 1448 980 1920 2250 1979 2265 2090 1883 1563 895 638 109 2 4 2 95 2 4 5 4 2 0 0 0 0 0 0 0 0 0 0 0 0 0 3 2 2
165 454 446 328 297 439 737 2 0 1 1 131 1223 1571 1123 345 94 2 0 1 1 0 3 3 6 7 3 1 5 0 0 0 0 0 0 0 0 0 0 0 0 1 0
171 360 408 143 326 702 255 1 1 2 2 1 2 47 95 59 2 2 2 2 2 0 81 31 134 35 3 14 2 0 0 0 0 0 0 0 0 0 0 0 0 0 0
191 92 354 483 505 813 355 52 71 4 44 2 1 0 2 2 2 2 2 1 1 1 160 231 119 112 73 6 0 0 0 0 0 0 0 0 0 0 0 0 0 0 0
426 674 801 943 1023 308 45 73 84 121 703 144 1 0 0 1 1 1 1 146 29 2 53 195 140 100 27 0 0 0 0 0 0 0 0 0 0 0 0 0 0 0 0
606 591 657 816 198 41 23 49 30 256 549 2 0 1 3 1 0 1 1 0 57 25 39 152 128 68 0 0 0 0 0 0 0 0 0 0 0 0 0 0 0 0 0
526 243 62 248 268 14 1 1 2 7 68 0 8 0 0 0 11 0 0 0 0 0 14 96 67 2 0 0 0 0 0 0 0 0 0 0 0 0 0 0 0 0 0
492 353 252 202 235 351 5 3 3 0 0 4 0 0 0 0 9 6 10 0 0 0 0 4 25 2 0 0 0 0 0 0 0 0 0 0 0 0 0 0 0 0 0
793 734 475 415 484 4 0 2 0 6 39 58 54 0 0 0 13 17 5 0 0 0 0 3 12 30 19 26 45 22 17 0 0 0 0 0 6 2 0 0 0 0 0
569 607 571 449 67 46 31 33 48 83 119 156 138 90 15 13 12 34 10 0 0 0 0 0 0 26 32 102 98 63 34 36 18 6 0 2 20 17 13 1 0 0 0
260 276 339 497 30 11 5 79 100 198 300 350 333 217 158 91 92 47 20 0 0 0 0 0 0 0 0 3 63 95 31 0 22 3 3 7 29 27 18 24 10 2 13
211 313 165 56 104 133 169 126 125 146 223 315 283 222 234 237 197 167 98 35 16 3 0 0 0 0 5 22 84 54 0 0 0 0 30 41 43 34 24 39 27 38 46
CIN
-146 -110 -102 -92 -71 -48 -55 -45 -50 -36 -47 -56 -62 -57 -43 -24 -20 -19 -17 -12 -8 -2 -4 -11 -4 -9 -1 -5 -3 -6 -5 -3 -0 -1 -30 -18 -27 -21 -26 -73 -36 -21 -17
-186 -128 -123 -105 -92 -83 -71 -59 -46 -46 -36 -35 -39 -44 -31 -30 -30 -25 -11 -9 -11 -6 -4 -3 -2 -0 -4 -6 -4 -2 -2 -1 -0 -0 -1 -2 -12 -19 -21 -53 -41 -46 -29
-207 -185 -133 -126 -95 -88 -87 -55 -42 -49 -36 -37 -36 -25 -24 -24 -37 -47 -41 -34 -18 -8 -7 -3 -4 -5 -2 -1 -2 -0 -0 -1 -1 -0 -0 -1 -7 -9 -8 -18 -20 -22 -25
-244 -201 -164 -134 -127 -102 -88 -58 -41 -40 -38 -27 -29 -19 -17 -21 -25 -36 -38 -38 -33 -12 -9 -5 -3 -2 -1 -0 -0 -0 -0 -0 -0 -0 -0 -0 -0 -2 -6 -2 -0 -9 -9
-234 -205 -195 -149 -132 -111 -87 -81 -49 -30 -43 -37 -33 -27 -25 -20 -14 -21 -27 -24 -12 -7 -4 -3 -1 -7 -16 -15 -0 -0 -0 -0 -0 -0 -0 -0 -0 -0 -0 -0 -0 -0 -0
-217 -221 -184 -176 -154 -137 -122 -100 -59 -55 -36 -27 -33 -39 -28 -25 -63 -85 -45 -10 -8 -9 -1 -0 -1 -22 -47 -101 -120 -103 -16 -0 -0 -0 -0 -0 -0 -0 -0 -0 -0 -0 -0
-164 -175 -167 -182 -170 -148 -138 -116 -98 -60 -48 -35 -41 -31 -37 -32 -89 -166 -255 -16 -7 -2 -0 -1 -0 -0 -13 -1 -51 -191 -45 -171 -60 -1 -0 -0 -0 -0 -0 -0 -0 -0 -0
-101 -133 -157 -166 -166 -143 -130 -107 -87 -76 -60 -43 -37 -20 -32 -27 -108 -203 -308 -57 -27 -19 -2 -1 -2 -0 -1 -10 -2 -0 -0 -5 -34 -21 -0 -0 -0 -0 -0 -0 -0 -0 -0
-120 -106 -120 -132 -135 -137 -135 -111 -93 -61 -56 -52 -38 -24 -17 -27 -169 -300 -226 -58 -28 -23 -21 -9 -8 -7 -21 -90 -11 -0 -0 -0 -85 -117 -98 -27 -23 -27 -2 -0 -3 -10 -6
-123 -107 -94 -116 -111 -114 -120 -128 -98 -95 -84 -86 -37 -17 -52 -65 -206 -142 -0 -64 -51 -36 -24 -8 -98 -49 -34 -159 -22 -0 -0 -0 -0 -1 -26 -50 -136 -3 -0 -47 -21 -2 -4
-85 -62 -86 -105 -93 -115 -87 -78 -106 -100 -59 -53 -60 -31 -24 -78 -78 -0 -0 -52 -50 -37 -25 -0 -0 -70 -0 -0 -0 -7 -0 -11 -28 -1 -0 -6 -30 -48 -0 -0 -0 -0 -17
-339 -238 -40 -66 -78 -86 -79 -83 -59 -74 -69 -45 -40 -40 -29 -47 -182 -0 -0 -83 -91 -0 -0 -1 -86 -0 -0 -0 -0 -0 -0 -18 -0 -0 -1 -13 -92 -0 -0 -0 -0 -0 -0
-270 -257 -211 -181 -53 -49 -30 -29 -32 -39 -53 -41 -25 -22 -36 -82 -148 -0 -0 -0 -12 -82 -120 -160 -14 -0 -0 -0 -0 -0 -0 -21 -0 -0 -0 -11 -0 -0 -0 -0 -0 -0 -0
-212 -175 -172 -268 -301 -102 -14 -13 -24 -61 -46 -48 -36 -34 -17 -121 -143 -0 -0 -0 -0 -0 -0 -0 -0 -0 -0 -0 -0 -0 -0 -0 -61 -57 -0 -0 -0 -0 -0 -0 -0 -0 -0
-173 -160 -150 -201 -243 -237 -74 -228 -52 -19 -37 -64 -70 -55 -33 -82 -117 -241 -0 -0 -0 -89 -0 -0 -0 -0 -0 -0 -0 -0 -0 -0 -0 -0 -0 -0 -0 -0 -0 -0 -0 -0 -0
-179 -93 -99 -140 -170 -135 -115 -0 -0 -0 -0 -476 -156 -73 -65 -221 -278 -38 -0 -0 -0 -0 -0 -0 -0 -0 -0 -0 -0 -0 -0 -0 -0 -0 -0 -0 -0 -0 -0 -0 -0 -0 -0
-166 -138 -110 -186 -130 -56 -181 -0 -0 -0 -0 -0 -4 -416 -296 -298 -0 -0 -0 -0 -0 -0 -172 -253 -150 -212 -6 -231 -0 -0 -0 -0 -0 -0 -0 -0 -0 -0 -0 -0 -0 -0 -0
-112 -225 -122 -102 -106 -46 -146 -280 -238 -31 -44 -0 -0 -0 -0 -0 -0 -0 -0 -0 -0 -0 -103 -91 -134 -126 -115 -0 -0 -0 -0 -0 -0 -0 -0 -0 -0 -0 -0 -0 -0 -0 -0
-43 -39 -25 -22 -17 -120 -210 -210 -187 -173 -20 -198 -0 -0 -0 -0 -0 -0 -0 -88 -106 -0 -132 -70 -103 -148 -198 -0 -0 -0 -0 -0 -0 -0 -0 -0 -0 -0 -0 -0 -0 -0 -0
-21 -32 -23 -8 -117 -198 -196 -141 -182 -34 -3 -0 -0 -129 -0 -0 -0 -0 -0 -0 -120 -59 -153 -66 -104 -187 -0 -0 -0 -0 -0 -0 -0 -0 -0 -0 -0 -0 -0 -0 -0 -0 -0
-15 -43 -106 -40 -42 -140 -0 -0 -0 -31 -59 -0 -167 -0 -0 -23 -349 -0 -0 -0 -0 -0 -129 -63 -64 -52 -0 -0 -0 -0 -0 -0 -0 -0 -0 -0 -0 -0 -0 -0 -0 -0 -0
-22 -19 -31 -34 -6 -0 -0 -0 -0 -0 -0 -132 -0 -0 -0 -22 -324 -335 -343 -0 -0 -0 -0 -0 -53 -0 -0 -0 -0 -0 -0 -0 -0 -0 -0 -0 -0 -0 -0 -0 -0 -0 -0
-3 -0 -0 -0 -0 -42 -0 -0 -9 -75 -65 -77 -92 -0 -0 -14 -270 -292 -292 -0 -0 -0 -0 -0 -0 -0 -4 -6 -5 -13 -4 -0 -0 -0 -0 -14 -49 -15 -0 -0 -0 -0 -0
-21 -5 -0 -0 -11 -13 -79 -45 -37 -45 -23 -19 -30 -100 -185 -226 -226 -216 -230 -0 -0 -0 -0 -0 -0 -3 -4 -4 -4 -7 -5 -3 -9 -23 -7 -54 -16 -15 -7 -0 -0 -0 -0
-57 -33 -7 -0 -30 -1 -26 -7 -1 -3 -1 -19 -16 -21 -51 -89 -66 -95 -134 -0 -0 -0 -0 -0 -0 -0 -0 -5 -3 -0 -9 -0 -8 -0 -26 -64 -22 -35 -28 -0 -0 -0 -0
-20 -12 -35 -32 -7 -6 -1 -0 -0 -6 -16 -31 -30 -24 -35 -24 -13 -9 -10 -18 -32 -80 -0 -0 -0 -0 -8 -26 -18 -17 -0 -0 -0 -0 -7 -3 -11 -42 -29 -4 -0 -0 -0
Wind_Speed
17 15 15 14 14 13 11 10 9 8 7 7 8 7 7 7 8 7 9 7 6 5 5 4 4 4 4 1 3 3 4 4 5 3 1 2 3 3 3 2 4 5 5
15 15 16 14 13 14 14 13 11 10 9 8 8 9 8 8 8 8 9 7 7 7 6 6 5 4 5 3 3 5 4 4 5 6 3 2 4 2 4 4 4 4 5
15 15 15 15 15 15 15 13 12 11 10 10 9 9 10 9 9 9 8 7 8 8 7 7 6 6 5 4 5 5 5 4 5 5 6 3 3 3 3 4 5 5 6
15 15 16 16 16 15 14 13 13 13 12 12 11 10 9 8 9 9 8 9 8 8 8 8 7 7 8 6 6 6 6 6 6 6 6 6 5 3 4 5 5 5 5
14 14 16 14 14 13 14 13 13 13 13 12 12 11 11 10 9 10 10 10 10 9 9 9 9 9 8 8 6 7 7 7 7 6 6 6 6 6 6 4 5 5 6
15 15 11 12 13 14 13 13 13 13 13 13 14 13 13 10 10 11 10 9 10 10 10 10 10 9 11 12 12 12 9 9 9 8 8 8 9 7 6 7 6 6 7
15 14 13 12 12 13 13 13 14 14 13 14 15 14 13 14 12 14 14 10 9 10 11 10 10 9 9 10 11 13 12 14 13 9 11 10 9 8 6 7 8 7 8
13 14 14 13 13 13 13 14 13 12 13 13 13 14 13 12 13 15 15 12 11 13 12 12 11 11 10 10 9 9 10 11 13 11 12 11 9 7 6 6 7 7 7
13 14 15 15 14 14 14 14 12 12 12 12 12 13 14 12 12 12 11 10 11 12 12 11 10 10 9 5 9 11 12 11 6 7 6 6 2 3 5 4 5 5 5
11 12 14 14 15 15 14 14 11 13 13 10 12 13 14 13 13 12 10 6 8 8 9 10 8 9 4 6 9 10 11 11 8 8 6 4 4 4 3 4 2 4 4
5 9 11 12 14 15 13 11 12 12 10 12 13 12 14 14 10 9 11 9 7 6 6 7 6 7 6 7 10 10 11 7 3 5 5 5 3 4 3 2 2 1 2
6 7 8 11 11 10 13 12 13 12 12 12 12 11 11 10 7 10 12 13 7 7 5 4 2 5 3 1 6 7 5 5 5 4 4 4 4 3 0 2 2 4 3
8 7 8 6 7 11 12 13 11 13 12 11 10 10 9 7 6 8 9 8 4 5 4 4 8 9 8 6 4 5 6 4 4 5 4 2 1 2 1 1 1 2 1
9 9 7 7 6 9 8 9 9 10 12 12 11 10 9 7 6 5 4 4 5 3 5 4 4 5 2 6 6 6 3 2 2 2 3 3 3 2 3 3 2 2 1
9 9 9 7 6 8 8 4 8 13 13 12 12 11 11 9 10 10 9 8 7 7 7 5 4 4 4 3 3 3 2 3 4 4 5 5 5 4 4 3 3 2 3
9 9 8 6 6 8 5 3 9 8 4 4 8 11 9 2 11 14 14 11 10 16 6 6 6 6 6 6 6 5 4 4 4 5 5 4 4 4 5 4 4 3 4
11 11 9 8 9 10 8 8 7 2 5 5 6 10 10 11 10 14 13 10 11 10 7 7 8 8 8 7 6 6 6 6 7 7 6 5 4 5 5 5 4 4 4
14 13 10 10 10 9 8 9 8 10 10 8 6 3 7 10 11 14 15 12 5 5 9 8 8 8 8 7 6 7 7 7 6 6 6 6 6 6 5 5 4 5 4
12 10 11 10 7 7 7 8 8 9 9 10 7 3 8 10 9 10 12 10 10 10 10 9 9 9 8 8 8 7 8 8 7 7 6 6 6 5 5 6 5 2 3
11 11 9 6 4 5 6 8 8 8 8 9 10 10 8 7 8 8 8 9 10 10 10 10 9 9 9 8 8 8 8 8 8 8 7 7 6 6 7 7 6 6 6
8 9 7 5 5 6 5 6 7 8 8 10 10 11 16 11 11 10 10 10 10 9 9 10 9 9 9 9 9 8 8 8 8 8 7 7 7 7 8 7 7 6 5
8 9 8 8 7 7 6 4 4 4 7 9 8 8 14 8 8 8 9 9 9 8 7 9 9 9 9 10 10 10 10 10 9 10 9 8 9 9 8 8 8 7 6
7 8 8 7 9 7 5 4 3 3 7 8 9 9 11 9 8 8 8 8 8 8 8 8 9 9 8 9 10 10 11 11 11 10 10 10 10 9 9 10 9 9 8
6 7 7 7 5 3 5 5 5 6 8 9 9 9 9 8 8 8 7 7 7 8 9 8 9 11 9 9 9 10 10 10 9 11 14 11 11 10 9 10 10 11 10
4 5 5 5 7 5 5 6 7 8 11 10 9 8 8 8 8 8 8 8 8 9 10 10 9 11 13 15 14 14 11 11 12 10 10 12 14 13 11 10 11 11 12
4 6 5 3 3 4 5 6 7 8 9 7 7 7 7 8 9 9 9 9 9 9 10 9 11 16 15 15 18 17 11 12 13 13 12 11 12 11 11 14 16 11 12
Wind_Direction
198 202 207 213 212 212 215 215 211 212 204 200 191 192 217 233 234 227 230 231 230 235 227 256 260 246 261 245 242 234 226 238 278 293 269 331 285 275 217 237 242 240 237
195 200 205 207 213 217 218 215 214 216 208 205 195 187 204 221 232 228 233 220 230 243 241 227 250 250 252 243 231 241 233 216 264 272 313 262 254 261 266 242 231 241 256
195 198 207 207 209 220 222 220 218 213 216 206 215 219 205 209 216 225 228 230 231 229 237 234 229 220 228 236 242 245 238 228 223 252 272 255 270 248 231 242 248 252 247
199 198 206 209 209 209 218 220 224 219 218 216 211 221 225 214 214 222 228 235 240 235 232 235 240 236 242 241 237 234 238 243 236 247 259 269 269 267 270 270 244 226 257
208 204 203 208 209 211 207 212 223 232 228 230 224 222 232 238 227 213 218 221 233 239 238 236 236 240 240 246 249 230 229 237 244 239 251 259 257 248 255 274 269 284 261
213 216 209 196 203 209 210 208 214 226 231 233 236 233 233 238 222 205 216 225 229 234 243 245 250 229 236 233 237 253 253 237 238 250 252 249 256 252 254 253 262 264 285
215 214 206 200 198 207 207 207 212 220 226 230 234 234 232 230 209 205 208 232 230 242 247 247 249 249 224 250 229 230 238 237 242 246 253 258 271 264 272 256 251 260 266
220 215 212 205 205 203 203 210 213 215 219 230 233 230 230 227 202 207 201 223 230 234 243 244 247 258 253 248 252 259 252 241 231 232 239 253 241 264 253 267 281 278 270
227 223 216 212 215 208 207 212 211 210 213 219 230 231 227 232 204 214 195 211 223 225 224 237 235 240 255 223 256 262 265 264 221 243 279 316 325 277 280 276 251 253 268
243 235 227 215 216 217 217 209 207 208 215 206 222 228 225 223 201 192 191 216 216 223 215 222 198 241 230 208 243 255 258 259 247 200 199 195 200 139 177 247 277 248 262
286 253 240 229 227 223 219 215 208 206 223 214 216 224 229 227 216 167 205 219 216 216 207 214 220 175 230 214 221 248 251 276 222 239 223 222 197 147 126 80 52 313 286
259 261 253 243 233 233 225 219 218 215 215 216 222 221 222 219 219 176 180 233 183 203 194 209 201 106 133 245 213 239 212 211 235 228 212 201 175 179 190 316 311 294 288
280 268 249 250 246 234 238 231 218 215 216 214 214 218 216 207 188 162 182 188 180 186 176 131 117 131 137 119 108 145 185 213 213 216 206 161 123 57 17 112 13 333 61
275 271 260 236 231 235 224 224 216 219 219 206 198 206 199 197 180 166 185 180 133 143 125 125 143 141 95 121 164 178 165 191 211 194 138 132 114 118 91 51 50 61 162
252 258 258 253 248 252 234 248 218 224 224 202 192 191 189 194 197 182 186 186 184 176 151 138 146 147 154 171 194 180 163 164 161 146 150 143 137 134 108 105 78 64 96
260 247 246 251 240 245 226 200 25 22 326 227 167 184 184 195 158 170 184 192 165 149 168 176 179 188 184 192 199 178 170 166 143 144 139 141 141 143 134 124 147 129 98
254 265 260 250 251 232 200 199 201 46 47 34 125 143 166 170 173 163 163 151 155 158 202 196 193 192 193 196 188 181 169 160 157 158 151 150 154 139 180 144 137 126 103
255 246 251 251 246 233 206 203 201 186 192 169 54 105 128 140 142 140 138 126 156 237 216 197 195 190 191 188 180 175 165 164 171 167 166 166 172 170 162 154 150 133 129
241 236 229 234 222 202 198 209 196 191 191 161 127 65 94 103 120 144 167 198 196 203 215 202 194 184 183 183 185 182 177 177 174 175 176 181 177 184 176 169 145 134 164
227 229 220 201 180 184 195 202 184 187 182 176 172 171 151 141 164 176 197 222 220 213 200 210 196 183 180 184 182 183 184 175 179 186 186 185 190 193 186 185 188 184 195
225 206 205 201 205 198 186 188 186 175 180 176 183 172 176 186 183 184 192 207 222 215 212 210 196 187 177 180 185 193 195 185 189 193 188 189 197 209 209 199 198 202 207
216 215 203 220 212 201 171 162 141 156 176 168 171 159 178 210 186 189 195 206 212 215 210 202 204 192 185 186 193 197 204 202 192 188 192 202 195 206 209 214 211 211 216
211 209 209 211 203 189 122 108 148 224 193 189 178 158 184 196 193 190 195 203 203 202 206 200 203 201 201 201 209 210 211 206 203 196 198 204 203 205 207 212 214 217 220
208 215 199 198 171 155 129 147 198 214 216 201 187 183 185 192 194 197 200 199 200 207 210 205 210 216 204 214 211 215 215 216 208 202 204 202 216 198 219 216 219 223 233
188 188 208 188 160 156 143 185 206 199 215 201 195 192 189 196 205 204 202 200 202 208 208 210 213 221 221 226 235 226 218 195 215 206 200 207 214 206 212 221 219 223 230
180 172 175 165 154 165 189 198 211 208 204 182 186 187 191 206 212 212 209 205 206 210 215 209 213 221 224 224 226 228 206 199 205 217 216 213 211 204 204 219 226 226 230